CZ-6A DEB, 58432

Orbit data source: Space-Track

CZ-6A DEB, 58432 is space debris in SSO originally from a launch on Fri, 11 Nov 2022 UTC launched from the Taiyaun Space Center, China (TSC). Debris objects in space refer to the collection of defunct objects orbiting the Earth. Examples of debris include non-operational satellites, rocket bodies, and fragments generated from explosions, collisions, or faulty payload assembly.

Loading next visibility...
Identifier
58432, 2022-151AJA
Orbit
SSO
Country
Flag of CNCN / PRC
Related business
Manufacturer
SAST
Mission
Spacecraft
Bus & Motor
Unknown
Mass
Unknown
Launch date (UTC)
2022-11-11 (3 years ago)
Launch vehicle
Unknown
Launch site
Taiyaun Space Center, China (TSC)
Object type
Payload
Rocket body
Debris
Shape & HBR
Unknown shape, 0.1 m
Radar Cross Section
Small (<0.1 m²)

Expand to show TLE details & history
Last TLE update: 1 week ago

TLE from 1 week ago
0 CZ-6A DEB
1 58432U 22151AJA 25342.30085492  .00001877  00000-0  85799-3 0  9994
2 58432  98.8041   1.8735 0013074 175.6636 184.4657 14.22667934134149
Epoch: 2025-12-08T07:13Z
TLE epoch observation values (Epoch: 2025-12-08T07:13:13.865Z)
Latitude
-0.00002°
Longitude
176.26387°
Altitude
828.639 km
Speed
7.434 km/s
True Right ascension
00h 07m 29s
True Declination
0° 00' 00"
Sunlit
Object was in daylight at epoch
Visualization orbit readout
Latitude
Unknown
Longitude
Unknown
Altitude
Unknown
Speed
Unknown
Apparent Right ascension
Unknown
Apparent Declination
Unknown
Sunlit
N/A
Visualization observer readout
Local Sidereal Time
13:20:33
Azimuth
Unknown
Elevation
Unknown
Doppler factor
Unknown
Orbital elements
Apogee altitude
822.906 km
Perigee altitude
804.101 km
Semi-major axis
7,191.641 km
Eccentricity
0.00131
Inclination
98.8041°
RAAN
1.8735°
Arg. of periapsis
175.6636°
True anomaly
184.45405°
Mean anomaly
184.4657°
Eccentric anomaly
184.45988°
Mean motion
3.55878 °/min
Orbital period
101.16 mins
BSTAR
0.00085799
Loading maneuver chart data...
Computing Atmospheric mass density...
Loading historical data...
Loading historical data...
Loading historical data...
Loading historical data...
Loading historical data...
Loading historical data...
Loading historical data...

Documentation

Showing up to 5 results
|